Location: Avenches
(46.8809°N, 7.0410°E)
Time: 23:11:55
(UTC+00:00)

STARLINK-1243 - Pass Details

Date: 30 March 2020
Orbit: 549 x 550 km, 53.0° (Epoch: 03 June)

Event Time Altitude Azimuth Distance (km) Brightness Sun altitude
Rises 18:29:02 0° 229° (SW) 2,714 7.7 -5.9°
Reaches altitude 10° 18:31:16 10° 226° (SW) 1,824 6.8 -6.3°
Maximum altitude 18:35:22 64° 145° (SE) 616 3.7 -7.0°
Drops below altitude 10° 18:39:30 10° 64° (ENE) 1,833 5.8 -7.6°
Enters shadow 18:41:05 - 62° (ENE) 2,462 6.5 -7.9°
